カタログに戻る

DIANLI HONGWEI A

運用中科学SSO
NORAD 67748·PAYLOAD·🇨🇳 China
この衛星名は、まだ公式ソースで確認されていません。

打ち上げ Feb 12, 2026 から South China Sea Launch Area

Loading…

次のパス (今後24時間)

TLE

最新Source: Space-Track

元期: Sep 13, 2026, 22:26 UTC

1 67748U 26027C   26256.93537667  .00003452  00000-0  16576-3 0  9998
2 67748  97.5188  24.6156 0009038 270.6934  89.3265 15.19496651 32439

AllMySatでDIANLI HONGWEI Aをリアルタイム追跡

Download on the App Store